FW6068 Weather Reports


time (UTC)temp
C
wind
direction
speed
KPH
gust
KPH
rain 1hr
cm
rain 24hr
cm
rain mn
cm
humidity
%
barometer
mb
20260509000105 15 130 0.0 3.2 0.00 0.00 0.00 68 1012.5
20260508234548 16 130 0.0 3.2 0.00 0.00 0.00 66 1012.3
20260508233052 16 130 0.0 1.6 0.00 0.00 0.00 67 1012.3
20260508231550 16 130 0.0 1.6 0.00 0.00 0.00 65 1012.2
20260508230040 16 130 0.0 6.4 0.00 0.00 0.00 63 1012.3
20260508224535 17 130 0.0 9.7 0.00 0.00 0.00 62 1012.1
20260508223037 17 130 0.0 6.4 0.00 0.00 0.00 61 1012.2
20260508221536 17 130 0.0 4.8 0.00 0.00 0.00 61 1012.1
20260508220034 18 130 1.6 4.8 0.00 0.00 0.00 58 1011.9
20260508214535 18 130 1.6 8.0 0.00 0.00 0.00 58 1012.1
20260508213034 18 130 0.0 11.3 0.00 0.00 0.00 59 1012.0
20260508211528 18 130 0.0 6.4 0.00 0.00 0.00 56 1011.7
20260508210032 18 130 1.6 9.7 0.00 0.00 0.00 56 1011.9
20260508204521 18 130 1.6 6.4 0.00 0.00 0.00 56 1012.2
20260508203021 18 130 0.0 6.4 0.00 0.00 0.00 54 1012.3
20260508201525 18 130 1.6 9.7 0.00 0.00 0.00 54 1012.3
20260508200022 18 129 0.0 4.8 0.00 0.00 0.00 55 1012.7
20260508194538 18 130 0.0 6.4 0.00 0.00 0.00 55 1012.8
20260508193022 19 130 0.0 8.0 0.00 0.00 0.00 53 1013.2
20260508191518 19 129 0.0 4.8 0.00 0.00 0.00 51 1013.2
20260508190018 18 130 1.6 9.7 0.00 0.00 0.00 52 1013.6
20260508184519 18 129 0.0 4.8 0.00 0.00 0.00 54 1013.6
20260508183010 18 130 1.6 4.8 0.00 0.00 0.00 49 1013.4
20260508181635 18 130 0.0 8.0 0.00 0.00 0.00 51 1013.8
20260508181502 18 130 0.0 8.0 0.00 0.00 0.00 48 1013.8
20260508180006 18 129 0.0 4.8 0.00 0.00 0.00 47 1013.9
20260508174508 18 130 0.0 8.0 0.00 0.00 0.00 43 1014.4
20260508173007 18 129 0.0 4.8 0.00 0.00 0.00 43 1014.3
20260508171505 18 129 0.0 4.8 0.00 0.00 0.00 39 1014.8
20260508170052 17 130 0.0 8.0 0.00 0.00 0.00 43 1014.8
20260508164538 18 129 1.6 6.4 0.00 0.00 0.00 44 1015.1
20260508163042 18 131 0.0 6.4 0.00 0.00 0.00 48 1015.4
20260508161549 17 131 0.0 1.6 0.00 0.00 0.00 45 1015.5
20260508160040 17 130 0.0 4.8 0.00 0.00 0.00 46 1015.7
20260508154541 17 131 0.0 4.8 0.00 0.00 0.00 48 1015.8
20260508153046 16 131 1.6 6.4 0.00 0.00 0.00 51 1016.0
20260508151545 16 131 0.0 4.8 0.00 0.00 0.00 57 1015.8
20260508150041 15 131 1.6 3.2 0.00 0.00 0.00 57 1016.0
20260508144540 16 131 0.0 3.2 0.00 0.00 0.00 57 1016.1
20260508143046 16 131 0.0 3.2 0.00 0.00 0.00 57 1016.3
20260508141543 15 131 0.0 1.6 0.00 0.00 0.00 63 1016.4
20260508140028 15 131 0.0 3.2 0.00 0.00 0.00 65 1016.4
20260508134524 14 131 0.0 3.2 0.00 0.00 0.00 74 1016.5
20260508133017 12 131 0.0 4.8 0.00 0.00 0.00 78 1016.6
20260508131510 11 131 0.0 3.2 0.00 0.00 0.00 83 1016.6
20260508130010 10 131 0.0 1.6 0.00 0.00 0.00 92 1016.6
20260508124513 7 131 0.0 1.6 0.00 0.00 0.00 94 1016.6
20260508123013 7 131 0.0 0.0 0.00 0.00 0.00 95 1016.4
20260508121515 7 131 0.0 1.6 0.00 0.00 0.00 95 1016.3
20260508120016 7 131 0.0 0.0 0.00 0.00 0.00 95 1016.4
20260508114522 6 131 0.0 1.6 0.00 0.00 0.00 95 1016.1
20260508113023 6 131 0.0 0.0 0.00 0.00 0.00 95 1015.8
20260508111513 6 131 0.0 0.0 0.00 0.00 0.00 95 1015.5
20260508110016 5 131 0.0 0.0 0.00 0.00 0.00 94 1015.2
20260508104521 5 131 0.0 0.0 0.00 0.00 0.00 94 1015.1
20260508103019 5 131 0.0 0.0 0.00 0.00 0.00 94 1014.8
20260508101520 6 131 0.0 0.0 0.00 0.00 0.00 94 1014.5
20260508100026 6 131 0.0 0.0 0.00 0.00 0.00 94 1014.1
20260508094530 6 131 0.0 0.0 0.00 0.00 0.00 93 1013.9
20260508093030 6 131 0.0 0.0 0.00 0.00 0.00 93 1014.0
20260508091534 6 131 0.0 0.0 0.00 0.00 0.00 93 1013.8
20260508090036 7 131 0.0 0.0 0.00 0.00 0.00 93 1013.6
20260508084536 7 131 0.0 0.0 0.00 0.00 0.00 92 1013.6
20260508083020 7 131 0.0 0.0 0.00 0.00 0.00 92 1013.3
20260508081526 7 131 0.0 0.0 0.00 0.00 0.00 93 1013.5
20260508080029 8 131 0.0 0.0 0.00 0.00 0.00 93 1013.1
20260508074533 8 131 0.0 0.0 0.00 0.00 0.00 93 1013.1
20260508073037 8 131 0.0 0.0 0.00 0.00 0.00 92 1012.9
20260508071534 8 131 0.0 0.0 0.00 0.00 0.00 90 1012.8
20260508070045 8 131 0.0 0.0 0.00 0.00 0.00 90 1012.8
20260508064548 8 131 0.0 0.0 0.00 0.00 0.00 90 1012.7
20260508063058 9 131 0.0 0.0 0.00 0.00 0.00 89 1012.6
20260508061502 9 131 0.0 0.0 0.00 0.00 0.00 88 1012.7
20260508060106 10 131 0.0 0.0 0.00 0.00 0.00 89 1012.6
20260508060002 10 131 0.0 0.0 0.00 0.00 0.00 89 1012.6
20260508054506 10 131 0.0 0.0 0.00 0.00 0.00 89 1012.7
20260508053006 10 131 0.0 0.0 0.00 0.00 0.00 88 1012.8
20260508051517 10 131 0.0 1.6 0.00 0.00 0.00 88 1012.8
20260508050010 10 131 0.0 0.0 0.00 0.00 0.00 88 1012.8
20260508044514 10 131 0.0 1.6 0.00 0.00 0.00 87 1012.6
20260508043017 10 131 0.0 1.6 0.00 0.00 0.00 88 1012.6
20260508041520 10 131 0.0 0.0 0.00 0.00 0.00 88 1012.4
20260508040022 10 131 0.0 0.0 0.00 0.00 0.00 89 1012.4
20260508034557 10 131 0.0 0.0 0.00 0.00 0.00 88 1012.5
20260508033056 9 131 0.0 0.0 0.00 0.00 0.00 88 1012.6
20260508031558 9 131 0.0 0.0 0.00 0.00 0.00 89 1012.8
20260508030009 9 131 0.0 0.0 0.00 0.00 0.00 88 1012.7
20260508024511 10 131 0.0 0.0 0.00 0.00 0.00 88 1012.7
20260508023012 10 131 0.0 0.0 0.00 0.00 0.00 87 1012.3
20260508021509 10 131 0.0 0.0 0.00 0.00 0.00 86 1012.1
20260508020014 10 131 0.0 0.0 0.00 0.00 0.00 85 1012.0
20260508014519 10 131 0.0 0.0 0.00 0.00 0.00 84 1011.9
20260508013020 10 131 0.0 0.0 0.00 0.00 0.00 84 1011.6
20260508011528 11 131 0.0 0.0 0.00 0.00 0.00 83 1011.3
20260508010014 11 131 0.0 0.0 0.00 0.00 0.00 84 1011.3
20260508004524 11 131 0.0 0.0 0.00 0.00 0.00 83 1011.0
20260508003024 11 131 0.0 0.0 0.00 0.00 0.00 83 1010.9
20260508001527 12 131 0.0 0.0 0.00 0.00 0.00 80 1010.7